Weather History for Bullhead City, AZ

Change the Weather History Date:

Wednesday, October 26, 2011

  Actual Average Record
Temperature  
Mean Temperature 68 °F -  
Max Temperature 73 °F 78 °F 95 °F (1988)
Min Temperature 64 °F 58 °F 45 °F (1989)
Cooling Degree Days 4    
Growing Degree Days 18 (Base 50)    
Moisture  
Dew Point 31 °F    
Average Humidity 27    
Maximum Humidity 49    
Minimum Humidity 12    
Precipitation  
Precipitation 0.00 in - - ()
Sea Level Pressure  
Sea Level Pressure 29.90 in    
Wind  
Wind Speed 14 mph (North)    
Max Wind Speed 37 mph    
Max Gust Speed 44 mph    
Visibility 10 miles    
Events      
Averages and records for this station are not official NWS values.
T = Trace of Precipitation, MM = Missing Value Source: NWS Daily Summary

Daily Weather History Graph

Daily Weather History Graph

Search for Another Location

Airport:

Trip Planner

Search our weather history database for the weather conditions in past years. The results will help you decide how hot, cold, wet, or windy it might be!

Date:

Astronomy

Oct. 26, 2011 Rise Set
Actual Time 6:53 AM MST 5:50 PM MST
Civil Twilight 6:27 AM MST 6:16 PM MST
Nautical Twilight 5:58 AM MST 6:45 PM MST
Astronomical Twilight 5:28 AM MST 7:15 PM MST
Moon 6:44 AM MST (10/26) 5:38 PM MST (10/26)
Length of Visible Light 11h 48m
Length of Day
10h 56m
Waning Crescent, 0% of the Moon is Illuminated
Oct 26
Waning Crescent
Oct 26
New
Nov 2
First Quarter
Nov 10
Full
Nov 18
Last Quarter

Hourly Weather History & Observations

Time (MST) Temp. Dew Point Humidity Pressure Visibility Wind Dir Wind Speed Gust Speed Precip Events Conditions
12:15 AM 68.0 °F 44.6 °F 43% 29.79 in 10.0 mi Calm Calm - N/A   Clear
12:35 AM 68.0 °F 42.8 °F 40% 29.79 in 10.0 mi Calm Calm - N/A   Clear
12:55 AM 68.0 °F 41.0 °F 37% 29.80 in 10.0 mi Calm Calm - N/A   Clear
1:15 AM 68.0 °F 44.6 °F 43% 29.80 in 10.0 mi Calm Calm - N/A   Clear
1:35 AM 66.2 °F 44.6 °F 46% 29.80 in 10.0 mi Calm Calm - N/A   Clear
1:55 AM 64.4 °F 44.6 °F 49% 29.79 in 10.0 mi Calm Calm - N/A   Clear
2:15 AM 66.2 °F 46.4 °F 49% 29.80 in 10.0 mi NNW 12.7 mph - N/A   Clear
2:35 AM 68.0 °F 44.6 °F 43% 29.80 in 10.0 mi East 5.8 mph - N/A   Clear
2:55 AM 68.0 °F 44.6 °F 43% 29.81 in 10.0 mi Calm Calm - N/A   Clear
3:15 AM 68.0 °F 42.8 °F 40% 29.80 in 10.0 mi NE 12.7 mph - N/A   Clear
3:35 AM 71.6 °F 39.2 °F 31% 29.81 in 10.0 mi NNW 11.5 mph 16.1 mph N/A   Clear
3:55 AM 71.6 °F 41.0 °F 33% 29.81 in 10.0 mi North 17.3 mph - N/A   Clear
4:15 AM 71.6 °F 39.2 °F 31% 29.81 in 10.0 mi NNE 20.7 mph - N/A   Clear
4:35 AM 69.8 °F 37.4 °F 31% 29.82 in 10.0 mi NNE 24.2 mph 28.8 mph N/A   Clear
4:55 AM 68.0 °F 37.4 °F 33% 29.83 in 10.0 mi NNE 21.9 mph 36.8 mph N/A   Clear
5:15 AM 68.0 °F 37.4 °F 33% 29.84 in 10.0 mi North 17.3 mph 28.8 mph N/A   Clear
5:35 AM 68.0 °F 37.4 °F 33% 29.85 in 10.0 mi North 16.1 mph 27.6 mph N/A   Clear
5:55 AM 68.0 °F 37.4 °F 33% 29.85 in 10.0 mi North 18.4 mph 24.2 mph N/A   Clear
6:15 AM 68.0 °F 35.6 °F 30% 29.85 in 10.0 mi North 23.0 mph 28.8 mph N/A   Clear
6:35 AM 68.0 °F 35.6 °F 30% 29.86 in 10.0 mi North 17.3 mph 33.4 mph N/A   Clear
6:55 AM 66.2 °F 37.4 °F 35% 29.87 in 10.0 mi North 19.6 mph 29.9 mph N/A   Clear
7:15 AM 66.2 °F 37.4 °F 35% 29.88 in 10.0 mi North 20.7 mph 25.3 mph N/A   Clear
7:35 AM 66.2 °F 35.6 °F 32% 29.89 in 10.0 mi North 20.7 mph 24.2 mph N/A   Clear
7:55 AM 66.2 °F 39.2 °F 37% 29.89 in 10.0 mi North 24.2 mph 33.4 mph N/A   Clear
8:15 AM 68.0 °F 37.4 °F 33% 29.90 in 10.0 mi North 25.3 mph 33.4 mph N/A   Clear
8:55 AM 68.0 °F 35.6 °F 30% 29.91 in 10.0 mi North 29.9 mph 39.1 mph N/A   Clear
9:15 AM 68.0 °F 35.6 °F 30% 29.92 in 10.0 mi North 31.1 mph 39.1 mph N/A   Clear
9:55 AM 68.0 °F 35.6 °F 30% 29.94 in 10.0 mi North 23.0 mph 33.4 mph N/A   Clear
10:15 AM 68.0 °F 35.6 °F 30% 29.95 in 10.0 mi North 24.2 mph 33.4 mph N/A   Partly Cloudy
10:35 AM 68.0 °F 35.6 °F 30% 29.95 in 10.0 mi North 28.8 mph 40.3 mph N/A   Partly Cloudy
10:55 AM 68.0 °F 32.0 °F 26% 29.96 in 10.0 mi North 26.5 mph 38.0 mph N/A   Clear
11:15 AM 69.8 °F 32.0 °F 25% 29.96 in 10.0 mi North 25.3 mph 35.7 mph N/A   Clear
11:35 AM 71.6 °F 30.2 °F 22% 29.95 in 10.0 mi North 26.5 mph 38.0 mph N/A   Clear
12:15 PM 71.6 °F 28.4 °F 20% 29.94 in 10.0 mi NNW 28.8 mph 41.4 mph N/A   Clear
12:35 PM 71.6 °F 26.6 °F 19% 29.95 in 10.0 mi North 26.5 mph 38.0 mph N/A   Clear
12:55 PM 71.6 °F 26.6 °F 19% 29.94 in 10.0 mi North 31.1 mph 39.1 mph N/A   Clear
1:15 PM 71.6 °F 24.8 °F 17% 29.94 in 10.0 mi NNW 31.1 mph 40.3 mph N/A   Clear
1:35 PM 71.6 °F 24.8 °F 17% 29.93 in 10.0 mi NNW 31.1 mph 43.7 mph N/A   Clear
1:55 PM 71.6 °F 21.2 °F 15% 29.93 in 10.0 mi NNW 36.8 mph 42.6 mph N/A   Clear
2:15 PM 73.4 °F 17.6 °F 12% 29.94 in 10.0 mi North 27.6 mph 40.3 mph N/A   Clear
2:35 PM 73.4 °F 17.6 °F 12% 29.94 in 10.0 mi NNW 26.5 mph 36.8 mph N/A   Clear
2:55 PM 73.4 °F 17.6 °F 12% 29.93 in 10.0 mi NNW 28.8 mph 36.8 mph N/A   Clear
3:15 PM 73.4 °F 21.2 °F 14% 29.94 in 10.0 mi NNW 26.5 mph 35.7 mph N/A   Clear
3:35 PM 71.6 °F 19.4 °F 14% 29.94 in 10.0 mi North 26.5 mph 38.0 mph N/A   Clear
3:55 PM 71.6 °F 19.4 °F 14% 29.95 in 10.0 mi North 25.3 mph 35.7 mph N/A   Clear
4:15 PM 71.6 °F 17.6 °F 13% 29.95 in 10.0 mi North 21.9 mph 33.4 mph N/A   Clear
4:35 PM 71.6 °F 21.2 °F 15% 29.95 in 10.0 mi North 21.9 mph 31.1 mph N/A   Clear
4:55 PM 71.6 °F 17.6 °F 13% 29.95 in 10.0 mi North 17.3 mph 31.1 mph N/A   Clear
5:15 PM 71.6 °F 17.6 °F 13% 29.95 in 10.0 mi North 24.2 mph 33.4 mph N/A   Clear
5:35 PM 69.8 °F 17.6 °F 14% 29.95 in 10.0 mi North 21.9 mph 31.1 mph N/A   Clear
5:55 PM 68.0 °F 17.6 °F 15% 29.95 in 10.0 mi North 21.9 mph 28.8 mph N/A   Clear
6:15 PM 68.0 °F 17.6 °F 15% 29.96 in 10.0 mi NNE 17.3 mph 28.8 mph N/A   Clear
6:35 PM 68.0 °F 17.6 °F 15% 29.98 in 10.0 mi NNE 17.3 mph 26.5 mph N/A   Clear
6:55 PM 68.0 °F 15.8 °F 13% 29.97 in 10.0 mi NNE 27.6 mph 34.5 mph N/A   Clear
7:15 PM 68.0 °F 17.6 °F 15% 29.98 in 10.0 mi North 24.2 mph 32.2 mph N/A   Clear
7:35 PM 68.0 °F 15.8 °F 13% 29.98 in 10.0 mi NNE 26.5 mph 33.4 mph N/A   Clear
7:55 PM 68.0 °F 14.0 °F 12% 29.97 in 10.0 mi North 29.9 mph 39.1 mph N/A   Clear
8:15 PM 68.0 °F 14.0 °F 12% 30.00 in 10.0 mi North 18.4 mph 31.1 mph N/A   Clear
8:35 PM 66.2 °F 14.0 °F 13% 30.01 in 10.0 mi North 18.4 mph 32.2 mph N/A   Clear
8:55 PM 66.2 °F 12.2 °F 12% 30.01 in 10.0 mi North 19.6 mph 25.3 mph N/A   Clear
9:15 PM 64.4 °F 14.0 °F 14% 30.03 in 10.0 mi North 15.0 mph 20.7 mph N/A   Clear
9:35 PM 64.4 °F 12.2 °F 13% 30.02 in 10.0 mi North 20.7 mph 28.8 mph N/A   Clear
9:55 PM 64.4 °F 12.2 °F 13% 30.04 in 10.0 mi North 17.3 mph 26.5 mph N/A   Clear
10:15 PM 64.4 °F 12.2 °F 13% 30.04 in 10.0 mi North 18.4 mph 26.5 mph N/A   Clear
10:35 PM 64.4 °F 10.4 °F 12% 30.05 in 10.0 mi North 18.4 mph 24.2 mph N/A   Clear
10:55 PM 62.6 °F 10.4 °F 13% 30.05 in 10.0 mi North 11.5 mph - N/A   Clear
11:15 PM 62.6 °F 15.8 °F 16% 30.04 in 10.0 mi North 23.0 mph 26.5 mph N/A   Clear
11:35 PM 62.6 °F 14.0 °F 15% 30.04 in 10.0 mi North 24.2 mph 29.9 mph N/A   Clear
11:55 PM 62.6 °F 12.2 °F 14% 30.06 in 10.0 mi North 17.3 mph 26.5 mph N/A   Clear